Flag for Canada Weather past 2 weeks in Fredericton, New Brunswick, Canada

Now
73 °F

Broken clouds.


Feels Like: 75 °F
Forecast: 64 / 77 °F
Wind: 3 mph from South

Location: Fredericton

Current Time: Aug 4, 2015 at 1:17:38 PM

Latest Report: Aug 4, 2015 at 12:00 PM


Visibility: 9 mi

Pressure: 29.84 "Hg

Humidity: 74%

Dew point: 64 °F

Location of FrederictonLocation

Historic Weather in Fredericton — Graph

°F

Fredericton temperature yesterday

Maximum temperature yesterday: 84 °F (at 1:00 PM)
Minimum temperature yesterday: 54 °F (at 6:00 AM)
Average temperature yesterday: 70 °F

Past Weeks' High & Low Weather Summary

 TemperatureHumidityPressure
High84 °F (Jul 30, 3:00 PM)100% (Jul 26, 8:03 AM)30.09 "Hg (Jul 26, 8:03 AM)
Low50 °F (Jul 26, 4:00 AM)37% (Jul 29, 5:00 PM)29.52 "Hg (Jul 22, 4:00 PM)
Average66 °F79%29.82 "Hg
* Reported Jul 20 12:00 Noon — Aug 4 12:00 Noon, Fredericton, Weather by CustomWeather, © 2015

Note: Actual official high and low records may vary slightly from our data, if they occured in-between our weather recording intervals... More about our weather records

Advertising

Fredericton weather history for previous 24 hours

 ConditionsComfort  
Time TempWeatherWind HumidityBarometerVisibility
12:00 PM
Tue, Aug 4
73 °FBroken clouds.3 mph74%29.84 "Hg9 mi
11:00 AM70 °FLow clouds.2 mph83%29.84 "Hg9 mi
10:00 AM68 °FLow clouds.5 mph88%29.83 "Hg9 mi
9:00 AM66 °FLow clouds.9 mph94%29.83 "Hg9 mi
8:00 AM66 °FLow clouds.6 mph94%29.83 "Hg9 mi
7:00 AM64 °FLow clouds.3 mph94%29.82 "Hg9 mi
6:02 AM64 °FFog.6 mph100%29.80 "Hg3 mi
5:00 AM64 °FLight rain. Fog.6 mph100%29.80 "Hg1 mi
4:00 AM66 °FLow clouds.7 mph94%29.81 "Hg9 mi
3:02 AM66 °FFog.7 mph94%29.80 "Hg3 mi
2:00 AM66 °FLow clouds.No wind94%29.81 "Hg9 mi
1:57 AM66 °FLow clouds.2 mph94%29.81 "Hg9 mi
1:00 AM64 °FPassing clouds.5 mph94%29.83 "Hg9 mi
12:55 AM64 °FPassing clouds.6 mph94%29.83 "Hg9 mi
12:00 AM66 °FPassing clouds.9 mph94%29.83 "Hg9 mi
11:47 PM
Mon, Aug 3
68 °FPassing clouds.7 mph88%29.83 "Hg9 mi
11:01 PM68 °FPassing clouds.6 mph94%29.84 "Hg9 mi
10:00 PM70 °FPassing clouds.9 mph88%29.83 "Hg9 mi
9:00 PM72 °FPartly sunny.10 mph83%29.81 "Hg9 mi
8:00 PM77 °FSunny.12 mph54%29.79 "Hg9 mi
7:00 PM79 °FSunny.16 mph51%29.77 "Hg9 mi
6:00 PM81 °FSunny.20 mph51%29.76 "Hg9 mi
5:00 PM82 °FSunny.16 mph42%29.77 "Hg9 mi
4:00 PM84 °FSunny.18 mph40%29.79 "Hg9 mi
3:00 PM84 °FSunny.20 mph40%29.80 "Hg9 mi
2:00 PM84 °FSunny.21 mph40%29.81 "Hg9 mi
1:00 PM84 °FSunny.23 mph40%29.82 "Hg9 mi
Weather by CustomWeather, © 2015

See weather overviewHow to use our weather pages